Regional Weather Roundup
Issued by NWS Sterling, VA

Home | Current Version | Previous Version | Graphics & Text | Print | Product List | Glossary On
Versions: 1 2 3 4 5 6 7 8 9 10 11 12 13 14 15 16 17 18 19 20 21 22 23 24 25 26 27
000
ASUS41 KLWX 280910
RWRLWX

REGIONAL WEATHER ROUNDUP
NATIONAL WEATHER SERVICE BALTIMORE MD/WASHINGTON DC
500 AM EDT SAT MAY 28 2016

Note: "FAIR" indicates few or no clouds below 12,000 feet
with no significant weather and/or obstructions to visibility.
 TC=TEMPERATURE CELSIUS

 * =Non NWS site. Station does not report precipitation (e.g. rain,
    snow, etc.), thunder, or fog.

DCZ001-MDZ009-015-VAZ040>042-051-053>054-281000-
WASHINGTON METRO

CITY           SKY/WX    TMP DP  RH WIND       PRES   REMARKS
WASHINGTON NAT FAIR      71  65  81 S7        30.11R
DULLES         FAIR      71  64  78 S7        30.10R
ANDREWS AFB    CLEAR     69  61  75 S7        30.11R
FT BELVOIR     FAIR      69  62  79 SE2       30.11R
QUANTICO       FAIR      72  62  71 SW10      30.12R
COLLEGE PARK*  FAIR      72  61  68 CALM      30.11R
LEESBURG*      FAIR      72  70  94 S3        30.11R
MANASSAS*      FAIR      70  64  83 CALM      30.10S

$$

MDZ006>007-011-014-281000-
BALTIMORE METRO

CITY           SKY/WX    TMP DP  RH WIND       PRES   REMARKS
BWI AIRPORT    PTCLDY    67  64  90 CALM      30.10R
MD SCIENCE CTR   N/A     71  64  78 MISG      30.11R
MARTIN STATE   CLEAR     70  68  94 SE5       30.12R
ANNAPOLIS      CLEAR     68  63  84 SE5       30.11R
FORT MEADE*    CLEAR     63  63 100 CALM      30.13R

$$

MDZ012-015-019>023-281000-
MARYLAND EASTERN SHORE

CITY           SKY/WX    TMP DP  RH WIND       PRES   REMARKS
OCEAN CITY     CLEAR     69  63  81 SW12      30.15R
SALISBURY      CLEAR     64  62  93 S5        30.14S
BAY BRIDGE AP* CLEAR     72  61  68 S8        30.12R
CAMBRIDGE*     CLEAR     68  63  83 S6        30.13R
EASTON*        CLEAR     71  66  84 S5        30.17R

$$

MDZ017>025-281000-
SOUTHERN MARYLAND

CITY           SKY/WX    TMP DP  RH WIND       PRES   REMARKS
PATUXENT RIVER CLEAR     69  58  67 S5        30.13R
ST INIGOES     CLEAR     69  60  73 S7        30.13R
LEONARDTOWN*   CLEAR     68  59  73 SW6       30.14S

$$

MDZ003>005-281000-
NORTH CENTRAL MARYLAND

CITY           SKY/WX    TMP DP  RH WIND       PRES   REMARKS
FREDERICK*     CLEAR     66  66 100 S3        30.13R
HAGERSTOWN APT CLEAR     69  65  86 S5        30.10R
WESTMINSTER*   CLEAR     70  64  83 S3        30.12R

$$

MDZ501>502-281000-
WESTERN MARYLAND

CITY           SKY/WX    TMP DP  RH WIND       PRES   REMARKS
OAKLAND*       CLEAR     63  59  88 SW7       30.20R
CUMBERLAND*    CLOUDY    68  68 100 CALM      30.15R

$$

VAZ025>031-281000-
SHENANDOAH VALLEY

CITY           SKY/WX    TMP DP  RH WIND       PRES   REMARKS
WINCHESTER*    FAIR      66  63  88 SW5       30.11R
FRONT ROYAL*   FAIR      64  64 100 S5        30.10R
LURAY*         FAIR      64  64 100 CALM      30.13R FOG
NEW MARKET*    FAIR      61  61 100 CALM      30.12R
STAUNTON*      FAIR      62  62 100 CALM      30.16R FOG
WAYNESBORO*    FAIR      63  62  96 CALM      30.15R

$$

WVZ021-048>050-054>055-281000-
EASTERN WEST VIRGINIA PANHANDLE

CITY           SKY/WX    TMP DP  RH WIND       PRES   REMARKS
MARTINSBURG    FAIR      65  64  97 CALM      30.10R
PETERSBURG*    FOG       63  63 100 CALM      30.14R VSB 1/4

$$

VAZ036>039-050-281000-
CENTRAL FOOTHILLS

CITY           SKY/WX    TMP DP  RH WIND       PRES   REMARKS
CHARLOTTESVILL FAIR      70  64  81 S9        30.11S
CULPEPER*      FAIR      71  65  83 S3        30.12R
ORANGE*        FAIR      68  64  88 CALM      30.14R
GORDONSVILLE*  FAIR      65  64  96 CALM      30.12R
WARRENTON*     FAIR      70  60  69 S5        30.11R

$$

VAZ055>057-281000-
NORTH AND CENTRAL PIEDMONT

CITY           SKY/WX    TMP DP  RH WIND       PRES   REMARKS
FREDERICKSBRG* FAIR      68  62  79 S3        30.12R
STAFFORD*      FAIR      68  59  73 S3        30.16R

$$

NCZ024-NYZ072-PAZ021-071-VAZ022-071-281000-
OTHER REGIONAL OBSERVATIONS

CITY           SKY/WX    TMP DP  RH WIND       PRES   REMARKS
NEW YORK CITY  CLOUDY    71  58  63 VRB5      30.11S
PHILADELPHIA   PTCLDY    69  59  70 S7        30.12R
PITTSBURGH     MOCLDY    68  62  81 CALM      30.09R
ROANOKE        FAIR      64  63  96 CALM      30.16S
RICHMOND       FAIR      65  60  84 S3        30.14S
RALEIGH        PTCLDY    62  59  90 CALM      30.16R

$$

ANZ530>537-281000-
MARINE OBSERVATIONS

STATION/POSITION TIME  TEMP    WIND        PRES
                       AIR SEA DIR/SP/G
                 (UTC) (F)     (DEG/KT/KT) (MB)
THOMAS PT LIGHT  0900   69 66  160/ 11/ 12 1021.0R
BALT KEY BRIDGE  0800   71     150/  2/  3 1019.0R
COVE POINT       0800   68     180/  9/ 10 1020.5R
LEWISETTA        0800   70 66  230/  9/ 10 1019.8R
SOLOMONS ISLAND  0800   71 67  190/  3/  6   N/A
PINEY POINT      0800          210/  5/  7   N/A

$$





USA.gov is the U.S. government's official web portal to all federal, state and local government web resources and services.